User: anonymous
Location: NJAA Observatory
(40.6819°N, 74.8979°W)
Time: 02:12:28
(UTC-04:00)
Language:

Cosmos 1633 - Orbit

View from above orbital plane
View from above orbital plane
View from above satellite
View from above satellite

Ground track
Ground track

The orbit data is extracted from the following two-line orbital elements,

1 15592U 85020A   14112.81393317  .00009250  00000-0  45029-3 0  4287
2 15592 082.5438 025.7814 0015957 263.6123 154.3791 15.18131033588884
Epoch (UTC): 22 April 2014 19:32:03
Eccentricity: 0.0015957
inclination: 82.5438°
perigee height: 500 km
apogee height: 522 km
right ascension of ascending node: 25.7814°
argument of perigee: 263.6123°
revolutions per day: 15.18131033
mean anomaly at epoch: 154.3791°
orbit number at epoch: 58888

The dashed part of the orbit path shows where the satellite is in the earth's shadow,  

DLR